Home > Weather > Cheltenham > Past weeks

Flag for United Kingdom Past Weather in Cheltenham, England, United Kingdom — Yesterday and Last 2 Weeks

Now
57 °F

Cool.


Feels Like: 56 °F
Forecast: 49 / 60 °F
Wind: 6 mph from West

Location: Little Rissington

Current Time: Jun 27, 2016 at 5:14:12 AM

Latest Report: Jun 27, 2016 at 4:00 AM


Visibility: 7 mi

Pressure: 29.97 "Hg

Humidity: 100%

Dew Point: 57 °F

Location of CheltenhamLocation

Past Weather in Cheltenham — Graph

°F

Cheltenham Temperature Yesterday

Maximum temperature yesterday: 62 °F (at 2:00 PM)
Minimum temperature yesterday: 51 °F (at 5:00 AM)
Average temperature yesterday: 55 °F

High & Low Weather Summary for the Past Weeks

 TemperatureHumidityPressure
High67 °F (Jun 20, 4:00 PM)100% (Jun 12, 5:00 AM)30.24 "Hg (Jun 12, 5:00 AM)
Low47 °F (Jun 25, 1:00 AM)61% (Jun 21, 7:00 PM)29.32 "Hg (Jun 14, 3:00 PM)
Average57 °F90%29.84 "Hg
* Reported Jun 12 3:00 AM — Jun 27 3:00 AM, Cheltenham, Weather by CustomWeather, © 2016

Note: Actual official high and low records may vary slightly from our data, if they occured in-between our weather recording intervals... More about our weather records

Advertising

Cheltenham Weather History for the Previous 24 Hours

Scroll right to see more
 ConditionsComfort  
Time TempWeatherWind HumidityBarometerVisibility
3:00 AM
Mon, Jun 27
58 °FCool.9 mph100%29.97 "Hg7 mi
2:00 AM58 °FCool.10 mph100%29.97 "Hg5 mi
1:00 AM58 °FCool.10 mph100%29.97 "Hg6 mi
12:00 AM57 °FCool.10 mph100%29.98 "Hg0 mi
11:00 PM
Sun, Jun 26
56 °FCool.12 mph100%30.00 "Hg0 mi
10:00 PM56 °FCool.13 mph100%30.00 "Hg1 mi
9:00 PM55 °FCool.12 mph99%30.01 "Hg2 mi
8:00 PM55 °FCool.10 mph99%30.02 "Hg4 mi
7:00 PM55 °FCool.14 mph97%30.02 "Hg6 mi
6:00 PM55 °FCool.9 mph94%30.04 "Hg6 mi
5:00 PM56 °FCool.12 mph87%30.06 "Hg9 mi
4:00 PM58 °FCool.13 mph77%30.06 "Hg15 mi
3:00 PM60 °FCool.14 mph72%30.05 "Hg14 mi
2:00 PM62 °FCool.14 mph70%30.05 "Hg17 mi
1:00 PM62 °FCool.12 mph68%30.05 "Hg16 mi
12:00 PM60 °FCool.10 mph74%30.06 "Hg15 mi
11:00 AM58 °FCool.9 mph77%30.06 "Hg14 mi
10:00 AM57 °FCool.13 mph76%30.07 "Hg14 mi
9:00 AM56 °FCool.9 mph84%30.07 "Hg11 mi
8:00 AM56 °FCool.10 mph85%30.06 "Hg11 mi
7:00 AM53 °FCool.7 mph95%30.07 "Hg8 mi
6:00 AM51 °FCool.9 mph95%30.07 "Hg7 mi
5:00 AM51 °FCool.10 mph97%30.06 "Hg9 mi
Weather by CustomWeather, © 2016

See weather overviewHow to use our weather pages